Location: Caltech
(34.1382°N, 118.1253°W)
Time: 09:10:52
(UTC-07:00)

Cosmos 1626 - Visible Passes

Search period start: 05 May 2016 00:00
Search period end: 15 May 2016 00:00
Orbit: 500 x 505 km, 82.5° (Epoch: 05 May)

Date Brightness Start Highest point End Pass type
(mag) Time Alt. Az. Time Alt. Az. Time Alt. Az.
06 May 4.2 05:23:28 10° SSE 05:26:46 31° E 05:30:06 10° NNE visible
07 May 4.8 05:04:42 10° SE 05:07:36 22° E 05:10:31 10° NE visible
08 May 5.1 04:46:10 10° SE 04:48:26 16° E 04:50:43 10° NE visible
09 May 5.4 04:28:14 10° ESE 04:29:18 11° E 04:30:22 10° ENE visible
11 May 2.1 05:22:04 10° SSW 05:25:47 71° W 05:29:31 10° N visible
12 May 2.3 05:02:48 10° S 05:06:31 78° E 05:10:16 10° N visible
13 May 2.9 04:43:40 10° S 04:47:17 52° E 04:50:56 10° NNE visible
14 May 3.7 04:24:38 10° SSE 04:28:03 35° E 04:31:30 10° NNE visible
